Location: Stanford
(52.2833°N, 2.4333°W)
Time: 01:04:27
(UTC+00:00)

USA 229 - Pass Details

Date: 22 January 2021
Orbit: 964 x 1248 km, 63.4° (Epoch: 26 February)

Event Time Altitude Azimuth Distance (km) Brightness Sun altitude
Rises 19:59:11 0° 314° (NW) 3,946 7.4 -30.2°
Reaches altitude 10° 20:01:51 10° 309° (NW) 3,024 6.7 -30.6°
Maximum altitude 20:08:50 52° 236° (WSW) 1,442 4.5 -31.6°
Enters shadow 20:11:43 35° 183° (S) 1,835 4.8 -32.0°
